This is the latest recevied weather packets stored in our database for station/object WL7CLI. If no packets are shown the sender has not sent any weather packets the latest 10 day(s).
| Time | Temp. | Humidity | Pressure | Rain* | Wind** | Luminosity | Snow |
|---|---|---|---|---|---|---|---|
| 1778119105 | 10° C | 41% | 1015.8 hPa | 0 mm | - | - | - |
| 1778119098 | 10° C | 41% | 1016.3 hPa | 0 mm | - | - | - |
| 1778118974 | 10° C | 40% | 1016.3 hPa | 0 mm | - | - | - |
| 1778117900 | 11.11° C | 39% | 1016.2 hPa | 0 mm | - | - | - |
| 1778117774 | 11.11° C | 40% | 1016.2 hPa | 0 mm | - | - | - |
| 1778117305 | 11.67° C | 37% | 1015.8 hPa | 0 mm | - | - | - |
| 1778116699 | 12.22° C | 35% | 1016.1 hPa | 0 mm | - | - | - |
| 1778116575 | 12.22° C | 34% | 1016.1 hPa | 0 mm | - | - | - |
| 1778115505 | 12.78° C | 33% | 1015.8 hPa | 0 mm | - | - | - |
| 1778115500 | 12.78° C | 33% | 1016.1 hPa | 0 mm | - | - | - |
| 1778115375 | 12.78° C | 33% | 1016.1 hPa | 0 mm | - | - | - |
| 1778114299 | 13.33° C | 32% | 1016.3 hPa | 0 mm | - | - | - |
| 1778114175 | 13.33° C | 31% | 1016.3 hPa | 0 mm | - | - | - |
| 1778113705 | 13.33° C | 31% | 1015.7 hPa | 0 mm | - | - | - |
| 1778113100 | 13.33° C | 31% | 1016.3 hPa | 0 mm | - | - | - |
| 1778112973 | 13.89° C | 32% | 1016.3 hPa | 0 mm | - | - | - |
| 1778111905 | 13.89° C | 31% | 1016 hPa | 0 mm | - | - | - |
| 1778111899 | 13.89° C | 31% | 1016.3 hPa | 0 mm | - | - | - |
| 1778111772 | 13.89° C | 31% | 1016.4 hPa | 0 mm | - | - | - |
| 1778110699 | 14.44° C | 33% | 1016.4 hPa | 0 mm | - | - | - |
| 1778110574 | 14.44° C | 33% | 1016.5 hPa | 0 mm | - | - | - |
| 1778110105 | 14.44° C | 32% | 1016 hPa | 0 mm | - | - | - |
| 1778109499 | 13.89° C | 33% | 1016.5 hPa | 0 mm | - | - | - |
| 1778109374 | 13.89° C | 31% | 1016.6 hPa | 0 mm | - | - | - |
| 1778108305 | 13.89° C | 34% | 1016.3 hPa | 0 mm | - | - | - |
* Rain latest hour (hover to see other rain measurements)
** Current wind speed in m/s (hover to see current wind gust speed)